Scappoose, OR

10:27 PM PDT on August 25, 2016 (GMT -0700)
Scappoose Industrial

Weather History for KSPB - April, 2014

Change the Weather History Date:

Wednesday, April 16, 2014

  Actual Average Record
Temperature  
Mean Temperature 52 °F -  
Max Temperature 57 °F - 79 °F (1999)
Min Temperature 47 °F - 31 °F (2009)
Degree Days  
Heating Degree Days 13    
Month to date heating degree days 205  
Since 1 July heating degree days 4367  
Cooling Degree Days 0    
Month to date cooling degree days 0  
Year to date cooling degree days 0  
Growing Degree Days 2 (Base 50)    
Moisture  
Dew Point 47 °F    
Average Humidity 82    
Maximum Humidity 96    
Minimum Humidity 67    
Precipitation  
Precipitation 0.23 in - 0.43 in (2002)
Month to date precipitation 0.91  
Year to date precipitation 18.56  
Sea Level Pressure  
Sea Level Pressure 30.08 in    
Wind  
Wind Speed 3 mph (South)    
Max Wind Speed 10 mph    
Max Gust Speed 14 mph    
Visibility 9 miles    
Events Rain    
T = Trace of Precipitation, MM = Missing Value Source: NWS Daily Summary

Daily Weather History Graph

Daily Weather History Graph

Search for Another Location

Airport or City:

Trip Planner

Search our weather history database for the weather conditions in past years. The results will help you decide how hot, cold, wet, or windy it might be!

Date:

Astronomy

Apr. 16, 2014 Rise Set
Actual Time 6:23 AM PDT 7:59 PM PDT
Civil Twilight 5:52 AM PDT 8:30 PM PDT
Nautical Twilight 5:14 AM PDT 9:09 PM PDT
Astronomical Twilight 4:33 AM PDT 9:50 PM PDT
Moon 9:54 PM PDT (4/16) 7:11 AM PDT (4/16)
Length of Visible Light 14h 38m
Length of Day
13h 35m
Full, 98% of the Moon is Illuminated
Apr 16
Full
Apr 22
Last Quarter
Apr 28
New
May 6
First Quarter
May 14
Full

Hourly Weather History & Observations

Time (PDT) Temp. Dew Point Humidity Pressure Visibility Wind Dir Wind Speed Gust Speed Precip Events Conditions
12:53 AM 48.9 °F 44.1 °F 83% 30.14 in 10.0 mi Calm Calm - 0.00 in Rain Light Rain
1:53 AM 48.9 °F 45.0 °F 86% 30.14 in 10.0 mi Calm Calm - 0.01 in Rain Light Rain
2:53 AM 46.9 °F 46.0 °F 97% 30.13 in 10.0 mi Calm Calm - 0.01 in   Overcast
3:53 AM 48.0 °F 45.0 °F 89% 30.13 in 10.0 mi Calm Calm - N/A   Overcast
4:53 AM 48.0 °F 45.0 °F 89% 30.12 in 10.0 mi SSE 3.5 mph - N/A   Overcast
5:53 AM 48.0 °F 45.0 °F 89% 30.12 in 10.0 mi South 3.5 mph - N/A   Overcast
6:53 AM 48.9 °F 45.0 °F 86% 30.13 in 10.0 mi Calm Calm - N/A   Overcast
7:53 AM 48.9 °F 46.0 °F 90% 30.12 in 10.0 mi SSE 4.6 mph - N/A   Overcast
8:53 AM 50.0 °F 46.9 °F 89% 30.12 in 10.0 mi SSE 8.1 mph - N/A   Overcast
9:13 AM 50.0 °F 46.0 °F 86% 30.11 in 10.0 mi SSE 6.9 mph - N/A   Overcast
9:53 AM 51.1 °F 46.0 °F 83% 30.11 in 10.0 mi SSE 6.9 mph - N/A   Overcast
10:07 AM 52.0 °F 46.0 °F 80% 30.11 in 10.0 mi SSE 5.8 mph - N/A   Overcast
10:41 AM 52.0 °F 46.0 °F 80% 30.12 in 10.0 mi Variable 4.6 mph - N/A   Overcast
10:53 AM 52.0 °F 46.0 °F 80% 30.12 in 10.0 mi South 5.8 mph - N/A   Overcast
11:53 AM 53.1 °F 46.0 °F 77% 30.12 in 10.0 mi Variable 6.9 mph - N/A   Overcast
12:13 PM 53.1 °F 46.0 °F 77% 30.11 in 10.0 mi Variable 4.6 mph - 0.00 in Rain Light Rain
12:44 PM 54.0 °F 46.0 °F 75% 30.11 in 10.0 mi Variable 6.9 mph - 0.00 in Rain Light Rain
12:53 PM 54.0 °F 46.0 °F 75% 30.11 in 10.0 mi South 5.8 mph - 0.00 in Rain Light Rain
1:21 PM 54.0 °F 46.9 °F 77% 30.10 in 10.0 mi South 5.8 mph - 0.00 in   Overcast
1:36 PM 55.0 °F 46.0 °F 72% 30.10 in 10.0 mi SSW 5.8 mph - 0.00 in   Overcast
1:53 PM 55.0 °F 46.0 °F 72% 30.10 in 10.0 mi South 5.8 mph - 0.00 in   Overcast
2:06 PM 55.9 °F 46.0 °F 69% 30.09 in 10.0 mi South 4.6 mph - N/A   Overcast
2:53 PM 57.0 °F 46.9 °F 69% 30.08 in 10.0 mi North - - N/A   Overcast
3:16 PM 55.9 °F 46.0 °F 69% 30.07 in 10.0 mi South 4.6 mph - N/A   Overcast
3:33 PM 55.9 °F 45.0 °F 67% 30.07 in 10.0 mi SW 9.2 mph - N/A   Overcast
3:53 PM 55.9 °F 46.0 °F 69% 30.07 in 10.0 mi SSW 5.8 mph - 0.00 in Rain Light Rain
4:53 PM 55.0 °F 48.0 °F 77% 30.06 in 9.0 mi South 3.5 mph - 0.01 in Rain Light Rain
5:53 PM 54.0 °F 48.0 °F 80% 30.05 in 10.0 mi South 4.6 mph - 0.01 in Rain Light Rain
6:53 PM 53.1 °F 50.0 °F 89% 30.04 in 7.0 mi Calm Calm - 0.02 in Rain Light Rain
7:53 PM 52.0 °F 50.0 °F 93% 30.02 in 7.0 mi Calm Calm - 0.03 in Rain Light Rain
8:53 PM 51.1 °F 50.0 °F 96% 30.02 in 4.0 mi Calm Calm - 0.01 in Rain Light Rain
9:53 PM 51.1 °F 50.0 °F 96% 30.02 in 8.0 mi Calm Calm - 0.02 in Rain Light Rain
10:10 PM 51.1 °F 50.0 °F 96% 30.01 in 7.0 mi Calm Calm - 0.01 in Rain Light Rain
10:46 PM 51.1 °F 50.0 °F 96% 30.01 in 7.0 mi Calm Calm - 0.01 in Rain Light Rain
10:53 PM 51.1 °F 50.0 °F 96% 30.01 in 5.0 mi Calm Calm - 0.02 in Rain Light Rain
11:19 PM 51.1 °F 50.0 °F 96% 30.00 in 4.0 mi Calm Calm - 0.01 in Rain Light Rain
11:53 PM 51.1 °F 50.0 °F 96% 30.00 in 4.0 mi Calm Calm - 0.04 in Rain Light Rain